Current weather by "City, St" or "zip code"  
 
Advertise Here

Current Conditions: Pawtucket, North Central State Airport, RI

Overcast


74.0 F

Last Updated on Aug 4 2020, 6:56 pm EDT
Humidity: 79%
Wind Speed: SW 18.4 G 32.2 mph
Barometer 29.76 in
Dewpoint: 66.9 F
Visibility: 10.00 mi
Precip: --
Heat Index: NA
Wind Chill: NA
Current conditions at:

Pawtucket, North Central State Airport, RI (KSFZ)

Lat: 41.91667 Lon: 71.5

Local Radar Image active severe weather and emergency alerts image image weather storm and storm spotter reports image weather observation monitoring service image
Local
Radar
Active
Alerts
Storm Reports Obs
Monitoring

Sign-up For Email & Text Message Weather Alert Notification Services


Advertise Here

Observation History for Pawtucket, North Central State Airport, RI


Time Wind
(mph)
Vis
(mi)
Weather Precip (in) Temperature (F) Relative
Humidity
Wind
Chill
(F)
Heat
Index
(F)
Pressure
Air Dwpt altimeter
(in)
sea level
(mb)
Rmks
6:56 pm EDT SW 18.4 G 32.2 10.00 Overcast -- 74.0 66.9 79% NA NA 29.76 1002.3
5:56 pm EDT S 18.4 G 33.4 10.00 Overcast -- 75.0 69.1 82% NA NA 29.75 1001.8
4:56 pm EDT S 12.7 G 25.3 10.00 Mostly Cloudy 00.56 74.0 72.0 94% NA NA 29.75 1002.1
3:56 pm EDT S 15.0 G 32.2 7.00 Overcast -- 79.0 75.0 88% NA NA 29.79 1003.1
2:56 pm EDT SE 16.1 G 28.8 9.00 Overcast -- 79.0 75.0 88% NA NA 29.87 1005.9
1:56 pm EDT SE 13.8 G 20.7 10.00 Mostly Cloudy -- 79.0 73.9 85% NA NA 29.94 1008.4
12:56 pm EDT SE 12.7 G 21.9 10.00 Partly Cloudy -- 82.0 73.9 77% NA 88 29.99 1009.9
11:56 am EDT SE 10.4 G 23.0 10.00 Partly Cloudy -- 80.0 75.0 85% NA 85 30.01 1010.5
10:56 am EDT SE 10.4 10.00 Mostly Cloudy -- 80.0 75.0 85% NA 85 30.03 1011.3
9:56 am EDT 5.8 10.00 Mostly Cloudy -- 78.0 73.9 87% NA NA 30.05 1012.1
8:56 am EDT 4.6 10.00 Partly Cloudy -- 77.0 73.9 90% NA NA 30.05 1012.1
7:56 am EDT SE 4.6 10.00 Mostly Cloudy -- 75.0 73.9 96% NA NA 30.06 1012.2
6:56 am EDT SE 3.5 10.00 NULL -- 74.0 73.9 100% NA NA 30.07 1012.8
5:56 am EDT SE 3.5 10.00 A Few Clouds -- 73.0 73.0 100% NA NA 30.07 1012.7
4:56 am EDT N 0.0 10.00 Fair -- 72.0 72.0 100% NA NA 30.07 1012.6
3:56 am EDT S 3.5 10.00 Fair -- 74.0 72.0 94% NA NA 30.08 1013.0
2:56 am EDT N 0.0 10.00 Fair -- 73.0 72.0 96% NA NA 30.09 1013.3
1:56 am EDT N 0.0 10.00 Fair -- 73.0 71.1 94% NA NA 30.06 1012.2
12:56 am EDT W 4.6 10.00 Fair -- 74.0 71.1 91% NA NA 30.09 1013.2
11:56 pm EDT W 3.5 10.00 Fair -- 76.0 70.0 82% NA NA 30.10 1013.7
10:56 pm EDT 4.6 10.00 Fair -- 77.0 69.1 77% NA NA 30.10 1013.5
9:56 pm EDT 3.5 10.00 Fair -- 77.0 66.0 69% NA NA 30.08 1013.0
8:56 pm EDT SW 3.5 10.00 Fair -- 78.0 64.0 62% NA NA 30.06 1012.2
7:56 pm EDT W 3.5 10.00 Fair -- 80.0 64.0 58% NA 82 30.03 1011.4

Regional Weather Observation


Norwood, Norwood Memorial Airport, MA (KOWD)

Partly Cloudy and Breezy
78.0 F

East Milton, MA (KMQE)

Windy
74.0 F

Pawtucket, North Central State Airport, RI (KSFZ)

Overcast
74.0 F

Fitchburg, Fitchburg Municipal Airport, MA (KFIT)

Overcast and Windy
77.0 F

Laurence G Hanscom Field Airport, MA (KBED)

Overcast and Breezy
77.0 F

Boston, Logan International Airport, MA (KBOS)

Mostly Cloudy and Windy
76.0 F